Location: Staunton
(38.1490°N, 79.0720°W)
Time: 02:18:54
(UTC-05:00)

ISS - Pass Details

Date: 11 February 2019
Orbit: 403 x 411 km, 51.6° (Epoch: 17 February)

Event Time Altitude Azimuth Distance (km) Brightness Sun altitude
Rises 18:37:42 0° 298° (WNW) 2,331 0.9 -9.9°
Reaches altitude 10° 18:40:00 10° 285° (WNW) 1,468 0.2 -10.3°
Maximum altitude 18:42:45 25° 228° (SW) 870 -1.4 -10.9°
Drops below altitude 10° 18:45:30 10° 171° (S) 1,463 -1.0 -11.4°
Sets 18:47:48 0° 157° (SSE) 2,321 -0.1 -11.9°
